SCP
-0 -0 -0 -0 -0 -0 -0 -0 -0 0 0 0 0 0 0 0 0 0 0 0 0 0 0 0 0 0 0 0 0 0 0 0 0 0 0 0 0 0 0 0 0 0 0
-0 0 0 -0 -0 -0 0 0 0 0 0 0 0 0 0 0 0 0 0 0 0 0 0 0 0 0 0 0 0 0 0 0 0 0 0 0 0 0 0 0 0 0 0
-0 0 0 0 0 0 0 0 0 0 0 0 0 0 0 0 0 0 0 0 0 0 0 0 0 0 0 0 0 0 0 0 0 0 0 0 0 0 0 0 0 0 0
-0 0 0 0 0 0 0 0 0 0 0 0 0 0 0 0 0 0 0 0 0 0 0 0 0 0 0 0 0 0 0 0 0 0 0 0 0 0 0 0 0 0 0
-0 -0 0 0 0 0 0 0 0 0 0 0 0 0 0 0 0 0 0 0 0 0 0 0 0 0 0 0 0 0 0 0 0 0 0 0 0 0 0 0 0 0 0
0 0 0 -0 0 0 0 0 0 0 0 0 0 0 0 0 0 0 0 0 0 0 0 0 0 0 0 0 0 0 0 0 0 0 0 0 0 0 0 0 0 0 0
0 0 -0 -0 -0 0 0 0 0 0 0 0 0 0 0 0 0 0 0 0 0 0 0 0 0 0 0 0 0 0 0 0 0 0 0 0 0 0 0 0 0 0 0
0 -0 -0 -0 0 0 0 0 0 0 0 0 0 0 0 0 0 0 0 0 0 0 0 0 0 0 0 0 0 0 0 0 0 0 0 0 0 0 0 0 0 0 0
0 0 0 0 0 0 0 0 0 0 0 0 0 0 0 0 0 0 0 0 0 0 0 0 0 0 0 0 0 0 0 0 0 0 0 0 0 0 0 0 0 0 0
0 0 0 0 0 0 0 0 0 0 0 0 0 0 0 0 0 0 0 0 0 0 0 0 0 0 0 0 0 0 0 0 0 0 0 0 0 0 0 0 0 0 0
0 0 0 0 0 0 0 0 0 0 0 0 0 0 0 0 0 0 0 0 0 0 0 0 0 0 0 0 0 0 0 0 0 0 0 0 0 0 0 0 0 0 0
0 0 0 0 0 0 0 0 0 0 0 0 0 0 0 0 0 0 0 0 0 0 0 0 0 0 0 0 0 0 0 0 0 0 0 0 0 0 0 0 0 0 0
0 0 0 0 0 0 0 0 0 0 0 0 0 0 0 0 0 0 0 0 0 0 0 0 0 0 0 0 0 0 0 0 0 0 0 0 0 0 0 0 0 0 0
0 0 0 0 0 0 0 0 0 0 0 0 0 0 0 0 0 0 0 0 0 0 0 0 0 0 0 0 0 0 0 0 0 0 0 0 0 0 0 0 0 0 0
0 0 0 0 0 0 0 0 0 0 0 0 0 0 0 0 0 0 0 0 0 0 0 0 0 0 0 0 0 0 0 0 0 0 0 0 0 0 0 0 0 0 0
0 0 0 0 0 0 0 0 0 0 0 0 0 0 0 0 0 0 0 0 0 0 0 0 0 0 0 0 0 0 0 0 0 0 0 0 0 0 0 0 0 0 0
0 0 0 0 0 0 0 0 0 0 0 0 0 0 0 0 0 0 0 0 0 0 0 0 0 0 0 0 0 0 0 0 0 0 0 0 0 0 0 0 0 0 0
0 0 0 0 0 0 0 0 0 0 0 0 0 0 0 0 0 0 0 0 0 0 0 0 0 0 0 0 0 0 0 0 0 0 0 0 0 0 0 0 0 0 0
0 0 0 0 0 0 0 0 0 0 0 0 0 0 0 0 0 0 0 0 0 0 0 0 0 0 0 0 0 0 0 0 0 0 0 0 0 0 0 0 0 0 0
0 0 0 0 0 0 0 0 0 0 0 0 0 0 0 0 0 0 0 0 0 0 0 0 0 0 0 0 0 0 0 0 0 0 0 0 0 0 0 0 0 0 0
0 0 0 0 0 0 0 0 0 0 0 0 0 0 0 -0 0 0 0 0 0 0 0 0 0 0 0 0 0 0 0 0 0 0 0 0 0 0 0 0 0 0 0
0 0 0 0 0 0 0 0 0 0 0 0 0 0 0 0 0 0 0 0 0 0 0 0 0 0 0 0 0 0 0 0 0 0 0 0 0 0 0 0 0 0 0
0 0 0 0 0 0 0 0 0 0 0 0 0 0 0 0 0 0 0 0 0 0 0 0 0 0 0 0 0 0 0 0 0 0 0 0 0 0 0 0 0 0 0
0 0 0 0 0 0 0 0 0 0 0 0 0 0 0 0 0 0 0 0 0 0 0 0 0 0 0 0 0 0 0 0 0 0 0 0 0 0 0 0 0 0 0
0 0 0 0 0 0 0 0 0 0 0 0 0 0 0 0 0 0 0 0 0 0 0 0 0 0 0 0 0 0 0 0 0 0 0 0 0 0 0 0 0 0 0
0 0 0 0 0 0 0 0 0 0 0 0 0 0 0 0 0 0 0 0 0 0 0 0 0 0 0 0 0 0 0 0 0 0 0 0 0 0 0 0 0 0 0
Wind_Speed_500mb
57 53 54 55 63 56 61 51 50 51 47 45 38 36 31 28 27 20 17 14 10 2 6 10 17 17 19 21 26 32 42 41 42 49 61 59 24 30 21 27 30 36 46
54 56 47 56 64 66 63 52 46 41 41 36 33 29 25 23 20 21 20 15 9 7 7 8 16 23 28 32 36 37 39 40 43 54 57 34 61 22 49 50 50 57 61
64 60 54 41 59 69 62 48 44 33 34 32 18 24 31 31 31 27 15 13 13 9 16 30 29 30 34 35 36 39 42 47 53 48 45 39 26 71 54 58 39 54 50
61 59 55 51 42 55 52 38 32 29 40 34 35 36 41 37 20 9 14 17 13 16 23 29 31 34 32 34 36 40 48 48 48 55 55 53 56 61 59 30 56 52 44
75 61 59 54 49 46 37 33 31 43 37 46 39 35 25 22 27 30 28 19 12 19 24 24 20 21 27 31 38 47 49 50 54 52 51 53 58 60 61 62 53 49 48
74 67 61 58 53 53 49 43 49 43 43 46 38 34 30 37 35 30 31 20 8 12 22 25 24 24 31 38 47 55 53 51 50 50 49 54 53 54 52 58 57 52 51
57 65 64 55 41 37 49 51 46 47 56 48 38 37 35 40 37 29 26 27 23 29 25 31 33 38 46 54 53 49 49 50 48 48 49 49 50 47 45 43 47 46 48
49 49 47 46 40 46 40 46 57 58 54 53 44 41 38 38 33 32 29 28 32 31 41 40 47 53 54 48 47 47 48 46 44 45 43 49 48 37 38 40 41 50 49
43 44 45 46 51 53 54 54 47 51 48 44 45 47 47 45 39 38 37 38 31 32 48 47 46 44 47 44 45 46 43 45 49 50 48 49 40 38 41 40 30 30 39
45 46 54 54 56 57 56 52 41 42 44 47 43 45 49 42 36 33 31 33 27 34 38 45 43 40 42 42 42 42 41 45 47 54 60 48 37 35 27 32 31 31 38
52 52 57 58 60 57 56 48 51 39 53 55 52 53 50 43 37 30 25 17 28 40 35 41 43 43 43 42 43 43 47 53 54 54 50 39 25 26 24 28 32 37 37
57 56 56 61 61 63 62 53 53 47 56 57 51 40 33 27 33 8 19 29 36 33 37 40 43 44 43 45 44 45 51 51 47 38 31 27 24 23 32 37 43 49 55
60 58 58 60 66 68 66 61 56 45 52 44 37 28 18 11 9 27 22 26 31 40 42 44 45 42 41 45 49 52 55 44 39 31 26 28 30 33 40 47 52 55 62
60 60 62 66 77 60 55 53 49 47 47 41 26 7 11 17 22 18 24 41 40 44 47 45 40 40 42 45 50 53 41 39 32 31 24 26 32 38 43 51 55 55 59
49 56 63 59 60 49 42 41 49 49 41 32 20 14 17 27 22 27 37 35 37 45 44 44 44 45 49 53 55 52 37 41 43 38 32 33 38 45 51 48 49 55 55
21 12 44 51 50 48 47 46 49 42 30 26 23 28 24 22 26 32 28 37 46 39 44 51 50 48 55 56 64 44 43 39 35 32 32 37 43 45 43 46 50 50 55
19 11 23 32 40 46 45 49 42 36 32 33 29 17 19 14 21 26 31 42 40 46 51 52 48 53 59 66 46 38 38 35 33 34 32 37 43 45 43 47 51 49 52
18 12 8 23 34 39 42 37 30 32 34 27 13 6 5 13 21 32 37 46 46 44 48 50 54 58 58 56 42 39 40 41 39 37 38 41 45 45 46 51 50 51 47
10 10 21 31 39 38 39 41 37 27 15 13 7 6 5 28 29 35 40 41 42 49 53 55 59 57 58 55 47 47 42 44 38 39 38 40 39 42 48 49 52 51 41
21 36 40 43 43 42 41 40 32 27 18 10 5 25 39 21 36 36 36 43 49 52 54 53 56 60 63 53 43 40 39 39 39 42 46 39 39 43 44 47 50 47 38
38 39 38 40 39 31 27 27 18 15 12 24 37 33 29 31 33 41 45 44 48 51 53 57 59 64 50 42 39 37 38 39 40 42 36 36 41 43 42 46 44 35 32
38 34 36 35 29 23 17 19 13 26 20 26 33 32 35 40 39 42 40 39 44 48 51 58 64 60 43 39 40 36 39 37 41 40 37 36 40 41 39 36 29 25 26
33 27 23 19 12 11 20 24 6 10 14 23 34 38 36 36 35 38 43 46 45 48 51 57 64 59 47 45 40 42 40 39 46 41 39 37 35 27 36 27 24 25 29
20 13 9 11 13 8 4 8 14 20 25 31 38 36 35 39 41 43 45 46 45 50 57 61 64 61 54 48 44 47 42 41 45 44 45 38 35 37 39 30 29 27 30
15 11 13 17 16 19 19 20 25 28 34 36 41 45 46 49 52 54 55 54 48 50 53 59 62 57 60 55 49 47 52 51 51 47 42 40 44 49 42 32 32 31 31
21 21 20 19 16 16 21 25 28 29 36 44 49 52 57 61 61 60 60 49 48 55 61 50 51 57 56 53 56 52 52 51 47 48 54 55 57 53 43 34 34 32 28
Wind_Direction_500mb
168 165 171 182 178 186 188 194 196 195 192 195 206 222 235 235 238 219 197 194 196 174 307 302 310 318 311 322 325 321 325 333 333 327 324 330 351 311 296 288 308 306 312
180 171 168 181 186 189 192 201 202 201 198 207 221 227 223 200 197 190 208 223 257 256 241 268 291 299 305 319 321 323 326 325 325 324 327 328 321 304 309 301 295 302 307
170 171 176 167 189 194 196 207 208 206 197 191 188 180 175 185 194 192 237 249 238 275 315 315 312 311 317 316 321 326 323 317 318 320 320 320 308 314 316 309 307 313 305
183 181 185 196 197 202 204 206 208 214 186 177 196 187 187 192 204 195 234 236 250 302 312 315 312 310 305 307 313 313 312 310 309 308 308 305 304 308 310 301 305 309 301
191 186 187 195 200 206 209 219 231 173 180 181 204 192 195 210 213 218 226 220 253 300 301 301 280 269 281 288 294 302 303 303 305 306 308 303 302 305 298 304 304 302 305
184 185 189 197 205 213 228 210 177 175 176 185 191 195 204 208 191 184 187 203 231 254 236 240 240 253 271 283 292 299 297 301 302 300 302 301 300 301 299 298 297 302 302
182 183 188 193 194 192 177 182 186 184 188 186 192 203 204 193 201 206 210 209 230 225 245 259 266 277 287 293 296 302 303 304 302 298 298 293 297 296 295 289 296 292 292
168 174 184 183 184 178 187 187 185 193 197 198 198 201 210 206 199 201 210 220 232 253 267 269 278 283 289 296 300 300 302 305 296 294 287 295 300 288 292 286 282 290 292
175 176 178 184 180 178 183 184 193 202 207 210 215 222 227 227 227 228 230 234 240 272 266 271 278 285 292 296 299 301 303 294 292 287 292 300 297 287 289 275 280 289 307
182 188 190 189 187 191 196 195 201 215 218 214 228 230 233 222 216 231 244 264 268 255 261 276 285 292 293 296 297 297 295 293 283 287 295 299 289 288 281 295 299 301 301
191 194 197 200 203 206 208 213 207 221 217 213 222 228 221 221 230 263 284 251 260 273 271 286 291 293 296 295 292 290 292 292 294 299 299 292 276 286 288 287 288 290 293
194 199 203 202 203 204 204 208 206 210 213 209 211 210 209 226 269 241 226 261 274 264 278 289 291 296 298 299 301 298 300 299 299 300 299 293 285 283 284 289 291 294 296
197 200 204 205 204 201 200 196 194 198 202 206 209 206 254 257 231 247 263 237 262 274 286 293 295 301 298 299 302 306 311 301 302 296 297 301 302 298 296 296 298 298 298
199 203 205 211 204 192 189 186 196 207 207 203 202 194 188 295 226 237 255 283 276 287 293 296 304 297 291 291 297 306 303 293 293 293 294 293 292 292 293 297 301 302 309
208 208 206 198 185 183 184 191 199 201 199 200 184 219 197 195 234 287 294 277 294 291 293 300 298 290 290 293 298 304 288 286 292 285 273 284 288 289 295 297 302 307 312
39 174 185 180 180 186 194 198 194 188 190 182 183 202 219 260 285 279 273 289 290 293 291 292 296 291 290 295 305 299 296 291 288 284 287 287 289 293 293 298 306 309 311
56 116 163 183 187 192 197 191 184 186 191 195 198 222 263 302 268 306 312 295 294 288 292 294 291 296 298 307 299 298 293 287 283 294 290 289 289 296 292 293 298 304 311
60 67 167 175 177 175 171 170 171 177 186 192 198 192 235 283 314 307 297 286 290 293 290 290 293 298 301 314 300 295 288 278 280 293 291 282 288 289 293 298 304 312 316
49 126 152 151 151 157 157 159 159 164 158 129 124 154 247 263 273 279 279 290 289 289 292 291 296 298 302 311 301 299 280 271 277 296 296 279 277 286 292 299 306 315 318
118 132 139 143 145 146 160 162 141 136 117 115 71 325 308 289 282 291 292 289 290 292 291 293 296 301 306 303 296 300 283 270 290 297 298 282 281 283 289 298 309 313 317
129 136 141 135 131 143 155 144 132 114 100 325 309 299 281 295 288 283 286 288 290 292 291 292 295 301 303 294 296 290 285 290 291 297 298 284 282 282 294 305 306 311 319
126 135 139 130 129 134 136 91 46 320 313 269 275 283 295 290 289 292 297 292 290 289 290 294 298 307 304 295 290 288 287 288 286 292 299 297 284 284 291 296 302 311 324
126 128 131 126 104 44 344 307 282 268 288 294 288 287 293 297 301 300 298 296 292 289 291 292 299 306 307 298 291 292 281 286 278 291 288 292 289 281 301 292 305 310 320
113 93 54 13 346 343 356 360 330 311 301 300 304 301 304 307 302 299 299 298 293 288 290 293 299 303 304 298 296 287 282 285 285 290 276 276 288 295 300 289 299 296 305
56 47 72 70 43 17 357 335 316 305 303 304 306 309 304 304 304 300 299 296 286 283 289 292 295 293 294 297 292 289 279 281 286 285 266 263 284 293 287 280 295 291 292
92 72 45 23 2 333 318 320 322 314 305 302 304 306 307 306 305 303 300 295 283 281 289 298 294 289 288 292 290 280 283 282 283 273 263 269 278 283 279 267 280 288 281
Wind_Speed_850mb
57 53 54 55 63 56 61 51 50 51 47 45 38 36 31 28 27 20 17 14 10 2 6 10 17 17 19 21 26 32 42 41 42 49 61 59 24 30 21 27 30 36 46
54 56 47 56 64 66 63 52 46 41 41 36 33 29 25 23 20 21 20 15 9 7 7 8 16 23 28 32 36 37 39 40 43 54 57 34 61 22 49 50 50 57 61
64 60 54 41 59 69 62 48 44 33 34 32 18 24 31 31 31 27 15 13 13 9 16 30 29 30 34 35 36 39 42 47 53 48 45 39 26 71 54 58 39 54 50
61 59 55 51 42 55 52 38 32 29 40 34 35 36 41 37 20 9 14 17 13 16 23 29 31 34 32 34 36 40 48 48 48 55 55 53 56 61 59 30 56 52 44
75 61 59 54 49 46 37 33 31 43 37 46 39 35 25 22 27 30 28 19 12 19 24 24 20 21 27 31 38 47 49 50 54 52 51 53 58 60 61 62 53 49 48
74 67 61 58 53 53 49 43 49 43 43 46 38 34 30 37 35 30 31 20 8 12 22 25 24 24 31 38 47 55 53 51 50 50 49 54 53 54 52 58 57 52 51
57 65 64 55 41 37 49 51 46 47 56 48 38 37 35 40 37 29 26 27 23 29 25 31 33 38 46 54 53 49 49 50 48 48 49 49 50 47 45 43 47 46 48
49 49 47 46 40 46 40 46 57 58 54 53 44 41 38 38 33 32 29 28 32 31 41 40 47 53 54 48 47 47 48 46 44 45 43 49 48 37 38 40 41 50 49
43 44 45 46 51 53 54 54 47 51 48 44 45 47 47 45 39 38 37 38 31 32 48 47 46 44 47 44 45 46 43 45 49 50 48 49 40 38 41 40 30 30 39
45 46 54 54 56 57 56 52 41 42 44 47 43 45 49 42 36 33 31 33 27 34 38 45 43 40 42 42 42 42 41 45 47 54 60 48 37 35 27 32 31 31 38
52 52 57 58 60 57 56 48 51 39 53 55 52 53 50 43 37 30 25 17 28 40 35 41 43 43 43 42 43 43 47 53 54 54 50 39 25 26 24 28 32 37 37
57 56 56 61 61 63 62 53 53 47 56 57 51 40 33 27 33 8 19 29 36 33 37 40 43 44 43 45 44 45 51 51 47 38 31 27 24 23 32 37 43 49 55
60 58 58 60 66 68 66 61 56 45 52 44 37 28 18 11 9 27 22 26 31 40 42 44 45 42 41 45 49 52 55 44 39 31 26 28 30 33 40 47 52 55 62
60 60 62 66 77 60 55 53 49 47 47 41 26 7 11 17 22 18 24 41 40 44 47 45 40 40 42 45 50 53 41 39 32 31 24 26 32 38 43 51 55 55 59
49 56 63 59 60 49 42 41 49 49 41 32 20 14 17 27 22 27 37 35 37 45 44 44 44 45 49 53 55 52 37 41 43 38 32 33 38 45 51 48 49 55 55
21 12 44 51 50 48 47 46 49 42 30 26 23 28 24 22 26 32 28 37 46 39 44 51 50 48 55 56 64 44 43 39 35 32 32 37 43 45 43 46 50 50 55
19 11 23 32 40 46 45 49 42 36 32 33 29 17 19 14 21 26 31 42 40 46 51 52 48 53 59 66 46 38 38 35 33 34 32 37 43 45 43 47 51 49 52
18 12 8 23 34 39 42 37 30 32 34 27 13 6 5 13 21 32 37 46 46 44 48 50 54 58 58 56 42 39 40 41 39 37 38 41 45 45 46 51 50 51 47
10 10 21 31 39 38 39 41 37 27 15 13 7 6 5 28 29 35 40 41 42 49 53 55 59 57 58 55 47 47 42 44 38 39 38 40 39 42 48 49 52 51 41
21 36 40 43 43 42 41 40 32 27 18 10 5 25 39 21 36 36 36 43 49 52 54 53 56 60 63 53 43 40 39 39 39 42 46 39 39 43 44 47 50 47 38
38 39 38 40 39 31 27 27 18 15 12 24 37 33 29 31 33 41 45 44 48 51 53 57 59 64 50 42 39 37 38 39 40 42 36 36 41 43 42 46 44 35 32
38 34 36 35 29 23 17 19 13 26 20 26 33 32 35 40 39 42 40 39 44 48 51 58 64 60 43 39 40 36 39 37 41 40 37 36 40 41 39 36 29 25 26
33 27 23 19 12 11 20 24 6 10 14 23 34 38 36 36 35 38 43 46 45 48 51 57 64 59 47 45 40 42 40 39 46 41 39 37 35 27 36 27 24 25 29
20 13 9 11 13 8 4 8 14 20 25 31 38 36 35 39 41 43 45 46 45 50 57 61 64 61 54 48 44 47 42 41 45 44 45 38 35 37 39 30 29 27 30
15 11 13 17 16 19 19 20 25 28 34 36 41 45 46 49 52 54 55 54 48 50 53 59 62 57 60 55 49 47 52 51 51 47 42 40 44 49 42 32 32 31 31
21 21 20 19 16 16 21 25 28 29 36 44 49 52 57 61 61 60 60 49 48 55 61 50 51 57 56 53 56 52 52 51 47 48 54 55 57 53 43 34 34 32 28
Wind_Direction_850mb
168 165 171 182 178 186 188 194 196 195 192 195 206 222 235 235 238 219 197 194 196 174 307 302 310 318 311 322 325 321 325 333 333 327 324 330 351 311 296 288 308 306 312
180 171 168 181 186 189 192 201 202 201 198 207 221 227 223 200 197 190 208 223 257 256 241 268 291 299 305 319 321 323 326 325 325 324 327 328 321 304 309 301 295 302 307
170 171 176 167 189 194 196 207 208 206 197 191 188 180 175 185 194 192 237 249 238 275 315 315 312 311 317 316 321 326 323 317 318 320 320 320 308 314 316 309 307 313 305
183 181 185 196 197 202 204 206 208 214 186 177 196 187 187 192 204 195 234 236 250 302 312 315 312 310 305 307 313 313 312 310 309 308 308 305 304 308 310 301 305 309 301
191 186 187 195 200 206 209 219 231 173 180 181 204 192 195 210 213 218 226 220 253 300 301 301 280 269 281 288 294 302 303 303 305 306 308 303 302 305 298 304 304 302 305
184 185 189 197 205 213 228 210 177 175 176 185 191 195 204 208 191 184 187 203 231 254 236 240 240 253 271 283 292 299 297 301 302 300 302 301 300 301 299 298 297 302 302
182 183 188 193 194 192 177 182 186 184 188 186 192 203 204 193 201 206 210 209 230 225 245 259 266 277 287 293 296 302 303 304 302 298 298 293 297 296 295 289 296 292 292
168 174 184 183 184 178 187 187 185 193 197 198 198 201 210 206 199 201 210 220 232 253 267 269 278 283 289 296 300 300 302 305 296 294 287 295 300 288 292 286 282 290 292
175 176 178 184 180 178 183 184 193 202 207 210 215 222 227 227 227 228 230 234 240 272 266 271 278 285 292 296 299 301 303 294 292 287 292 300 297 287 289 275 280 289 307
182 188 190 189 187 191 196 195 201 215 218 214 228 230 233 222 216 231 244 264 268 255 261 276 285 292 293 296 297 297 295 293 283 287 295 299 289 288 281 295 299 301 301
191 194 197 200 203 206 208 213 207 221 217 213 222 228 221 221 230 263 284 251 260 273 271 286 291 293 296 295 292 290 292 292 294 299 299 292 276 286 288 287 288 290 293
194 199 203 202 203 204 204 208 206 210 213 209 211 210 209 226 269 241 226 261 274 264 278 289 291 296 298 299 301 298 300 299 299 300 299 293 285 283 284 289 291 294 296
197 200 204 205 204 201 200 196 194 198 202 206 209 206 254 257 231 247 263 237 262 274 286 293 295 301 298 299 302 306 311 301 302 296 297 301 302 298 296 296 298 298 298
199 203 205 211 204 192 189 186 196 207 207 203 202 194 188 295 226 237 255 283 276 287 293 296 304 297 291 291 297 306 303 293 293 293 294 293 292 292 293 297 301 302 309
208 208 206 198 185 183 184 191 199 201 199 200 184 219 197 195 234 287 294 277 294 291 293 300 298 290 290 293 298 304 288 286 292 285 273 284 288 289 295 297 302 307 312
39 174 185 180 180 186 194 198 194 188 190 182 183 202 219 260 285 279 273 289 290 293 291 292 296 291 290 295 305 299 296 291 288 284 287 287 289 293 293 298 306 309 311
56 116 163 183 187 192 197 191 184 186 191 195 198 222 263 302 268 306 312 295 294 288 292 294 291 296 298 307 299 298 293 287 283 294 290 289 289 296 292 293 298 304 311
60 67 167 175 177 175 171 170 171 177 186 192 198 192 235 283 314 307 297 286 290 293 290 290 293 298 301 314 300 295 288 278 280 293 291 282 288 289 293 298 304 312 316
49 126 152 151 151 157 157 159 159 164 158 129 124 154 247 263 273 279 279 290 289 289 292 291 296 298 302 311 301 299 280 271 277 296 296 279 277 286 292 299 306 315 318
118 132 139 143 145 146 160 162 141 136 117 115 71 325 308 289 282 291 292 289 290 292 291 293 296 301 306 303 296 300 283 270 290 297 298 282 281 283 289 298 309 313 317
129 136 141 135 131 143 155 144 132 114 100 325 309 299 281 295 288 283 286 288 290 292 291 292 295 301 303 294 296 290 285 290 291 297 298 284 282 282 294 305 306 311 319
126 135 139 130 129 134 136 91 46 320 313 269 275 283 295 290 289 292 297 292 290 289 290 294 298 307 304 295 290 288 287 288 286 292 299 297 284 284 291 296 302 311 324
126 128 131 126 104 44 344 307 282 268 288 294 288 287 293 297 301 300 298 296 292 289 291 292 299 306 307 298 291 292 281 286 278 291 288 292 289 281 301 292 305 310 320
113 93 54 13 346 343 356 360 330 311 301 300 304 301 304 307 302 299 299 298 293 288 290 293 299 303 304 298 296 287 282 285 285 290 276 276 288 295 300 289 299 296 305
56 47 72 70 43 17 357 335 316 305 303 304 306 309 304 304 304 300 299 296 286 283 289 292 295 293 294 297 292 289 279 281 286 285 266 263 284 293 287 280 295 291 292
92 72 45 23 2 333 318 320 322 314 305 302 304 306 307 306 305 303 300 295 283 281 289 298 294 289 288 292 290 280 283 282 283 273 263 269 278 283 279 267 280 288 281